Home > Weather > Worcester > Past weeks

Flag for United Kingdom Weather for the Past 2 Weeks in Worcester, England, United Kingdom

Now
43 °F

Passing clouds.


Feels Like: 36 °F
Forecast: 34 / 52 °F
Wind: 13 mph from Southwest

Location: Staverton Private

Current Time: Apr 29, 2016 at 9:28:09 AM

Latest Report: Apr 29, 2016 at 8:20 AM


Visibility: N/A

Pressure: 29.77 "Hg

Humidity: 66%

Dew Point: 32 °F

Location of WorcesterLocation

Historic Weather in Worcester — Graph

°F

Worcester Temperature Yesterday

Maximum temperature yesterday: 52 °F (at 3:50 PM)
Minimum temperature yesterday: 34 °F (at 6:20 AM)
Average temperature yesterday: 47 °F

High & Low Weather Summary for the Past Weeks

 TemperatureHumidityPressure
High61 °F (Apr 20, 2:50 PM)100% (Apr 15, 8:20 AM)30.45 "Hg (Apr 15, 8:20 AM)
Low34 °F (Apr 27, 6:50 AM)33% (Apr 20, 11:20 AM)29.50 "Hg (Apr 15, 3:20 PM)
Average50 °F65%30.00 "Hg
* Reported Apr 14 8:20 AM — Apr 29 8:20 AM, Worcester, Weather by CustomWeather, © 2016

Note: Actual official high and low records may vary slightly from our data, if they occured in-between our weather recording intervals... More about our weather records

Advertising

Worcester Weather History for the Previous 24 Hours

Scroll right to see more
 ConditionsComfort  
Time TempWeatherWind HumidityBarometerVisibility
8:20 AM
Fri, Apr 29
43 °FPassing clouds.13 mph66%29.77 "HgN/A
7:20 PM
Thu, Apr 28
50 °FScattered showers. Scattered clouds.16 mph71%29.77 "HgN/A
6:50 PM50 °FScattered clouds.16 mph71%29.77 "HgN/A
6:20 PM50 °FPassing clouds.16 mph71%29.77 "HgN/A
5:50 PM50 °FPassing clouds.13 mph76%29.80 "HgN/A
5:20 PM52 °FScattered showers. Scattered clouds.15 mph72%29.80 "HgN/A
4:50 PM50 °FSprinkles. Scattered clouds.16 mph71%29.80 "HgN/A
4:20 PM52 °FScattered showers. Scattered clouds.16 mph62%29.80 "HgN/A
3:50 PM52 °FSprinkles. Broken clouds.16 mph62%29.83 "HgN/A
3:20 PM50 °FBroken clouds.17 mph58%29.83 "HgN/A
2:50 PM50 °FPartly sunny.16 mph58%29.86 "HgN/A
1:50 PM50 °FPartly sunny.18 mph62%29.86 "HgN/A
1:20 PM50 °FBroken clouds.17 mph54%29.89 "HgN/A
12:20 PM50 °FPartly sunny.14 mph67%29.89 "HgN/A
11:50 AM48 °FSprinkles. Scattered clouds.13 mph62%29.92 "HgN/A
11:20 AM50 °FPassing clouds.9 mph67%29.92 "HgN/A
10:50 AM48 °FPassing clouds.8 mph71%29.95 "HgN/A
10:20 AM46 °FPassing clouds.8 mph66%29.95 "HgN/A
9:20 AM43 °FPassing clouds.5 mph76%29.95 "HgN/A
Weather by CustomWeather, © 2016

See weather overviewHow to use our weather pages